| time (UTC) | temp F | wind direction | speed knots | gust knots | rain 1hr in | rain 24hr in | rain mn in | humidity % | barometer mb |
| 20260901124020 | 59 | 143 | 4.3 | 8.7 | 0.00 | 0.00 | 0.00 | 79 | 1013.5 |
| 20260901123019 | 59 | 116 | 4.3 | 8.7 | 0.00 | 0.00 | 0.00 | 79 | 1013.5 |
| 20260901122048 | 59 | 151 | 3.5 | 8.7 | 0.00 | 0.00 | 0.00 | 79 | 1013.4 |
| 20260901121024 | 59 | 107 | 4.3 | 9.6 | 0.00 | 0.00 | 0.00 | 79 | 1013.5 |
| 20260901120023 | 59 | 137 | 4.3 | 7.8 | 0.00 | 0.00 | 0.00 | 78 | 1013.5 |
| 20260901115024 | 59 | 164 | 3.5 | 9.6 | 0.00 | 0.00 | 0.00 | 79 | 1013.4 |
| 20260901114026 | 59 | 139 | 4.3 | 8.7 | 0.00 | 0.00 | 0.00 | 79 | 1013.3 |
| 20260901113013 | 59 | 138 | 4.3 | 7.8 | 0.00 | 0.00 | 0.00 | 79 | 1013.3 |
| 20260901112014 | 59 | 155 | 4.3 | 7.0 | 0.00 | 0.00 | 0.00 | 79 | 1013.1 |
| 20260901111014 | 59 | 120 | 3.5 | 7.0 | 0.00 | 0.00 | 0.00 | 79 | 1013.1 |
| 20260901110015 | 59 | 108 | 4.3 | 6.1 | 0.00 | 0.00 | 0.00 | 79 | 1013.2 |
| 20260901105037 | 59 | 127 | 4.3 | 7.8 | 0.00 | 0.00 | 0.00 | 78 | 1013.2 |
| 20260901104012 | 59 | 123 | 3.5 | 7.0 | 0.00 | 0.00 | 0.00 | 78 | 1013.1 |
| 20260901103013 | 59 | 139 | 4.3 | 7.0 | 0.00 | 0.00 | 0.00 | 78 | 1013.1 |
| 20260901102035 | 59 | 124 | 5.2 | 9.6 | 0.00 | 0.00 | 0.00 | 78 | 1012.9 |
| 20260901101011 | 59 | 132 | 6.1 | 10.4 | 0.00 | 0.00 | 0.00 | 79 | 1013.1 |
| 20260901100014 | 59 | 172 | 4.3 | 11.3 | 0.00 | 0.00 | 0.00 | 79 | 1013.2 |
| 20260901095014 | 59 | 139 | 4.3 | 8.7 | 0.00 | 0.00 | 0.00 | 79 | 1013.1 |
| 20260901094010 | 59 | 157 | 4.3 | 8.7 | 0.00 | 0.00 | 0.00 | 79 | 1013.2 |
| 20260901093013 | 59 | 169 | 6.1 | 7.8 | 0.00 | 0.00 | 0.00 | 79 | 1013.1 |
| 20260901092016 | 59 | 119 | 3.5 | 9.6 | 0.00 | 0.00 | 0.00 | 78 | 1013.1 |
| 20260901091033 | 59 | 103 | 5.2 | 10.4 | 0.00 | 0.00 | 0.00 | 78 | 1013.1 |
| 20260901090013 | 59 | 119 | 5.2 | 9.6 | 0.00 | 0.00 | 0.00 | 79 | 1013.3 |
| 20260901085016 | 59 | 95 | 7.0 | 10.4 | 0.00 | 0.00 | 0.00 | 79 | 1013.2 |
| 20260901084015 | 59 | 127 | 5.2 | 9.6 | 0.00 | 0.00 | 0.00 | 79 | 1013.2 |
| 20260901083019 | 59 | 155 | 5.2 | 8.7 | 0.00 | 0.00 | 0.00 | 79 | 1013.3 |
| 20260901082021 | 59 | 156 | 6.1 | 10.4 | 0.00 | 0.00 | 0.00 | 79 | 1013.2 |
| 20260901081027 | 59 | 143 | 5.2 | 9.6 | 0.00 | 0.00 | 0.00 | 79 | 1013.2 |
| 20260901080022 | 59 | 133 | 6.1 | 11.3 | 0.00 | 0.00 | 0.00 | 79 | 1013.1 |
| 20260901075022 | 59 | 113 | 6.1 | 9.6 | 0.00 | 0.00 | 0.00 | 79 | 1013.0 |
| 20260901074024 | 59 | 99 | 4.3 | 10.4 | 0.00 | 0.00 | 0.00 | 79 | 1013.1 |
| 20260901073019 | 60 | 139 | 7.0 | 12.2 | 0.00 | 0.00 | 0.00 | 79 | 1013.1 |
| 20260901072022 | 60 | 103 | 5.2 | 12.2 | 0.00 | 0.00 | 0.00 | 78 | 1013.0 |
| 20260901071023 | 60 | 124 | 4.3 | 9.6 | 0.00 | 0.00 | 0.00 | 78 | 1013.0 |
| 20260901070046 | 60 | 130 | 5.2 | 12.2 | 0.00 | 0.00 | 0.00 | 78 | 1013.0 |
| 20260901065034 | 60 | 134 | 5.2 | 9.6 | 0.00 | 0.00 | 0.00 | 78 | 1013.0 |
| 20260901064014 | 60 | 136 | 6.1 | 11.3 | 0.00 | 0.00 | 0.00 | 78 | 1013.0 |
| 20260901063017 | 60 | 141 | 4.3 | 9.6 | 0.00 | 0.00 | 0.00 | 78 | 1013.0 |
| 20260901062012 | 60 | 162 | 4.3 | 12.2 | 0.00 | 0.00 | 0.00 | 77 | 1013.0 |
| 20260901061011 | 60 | 146 | 5.2 | 9.6 | 0.00 | 0.00 | 0.00 | 77 | 1012.9 |
| 20260901060012 | 61 | 195 | 4.3 | 9.6 | 0.00 | 0.00 | 0.00 | 77 | 1012.8 |
| 20260901055048 | 61 | 145 | 5.2 | 9.6 | 0.00 | 0.00 | 0.00 | 76 | 1012.6 |
| 20260901054028 | 61 | 132 | 4.3 | 10.4 | 0.00 | 0.00 | 0.00 | 76 | 1012.7 |
| 20260901053052 | 61 | 125 | 4.3 | 7.8 | 0.00 | 0.00 | 0.00 | 75 | 1012.6 |
| 20260901052026 | 62 | 159 | 4.3 | 9.6 | 0.00 | 0.00 | 0.00 | 75 | 1012.7 |
| 20260901051024 | 62 | 158 | 3.5 | 8.7 | 0.00 | 0.00 | 0.00 | 75 | 1012.7 |
| 20260901050028 | 62 | 199 | 3.5 | 8.7 | 0.00 | 0.00 | 0.00 | 74 | 1012.7 |
| 20260901045024 | 63 | 154 | 4.3 | 10.4 | 0.00 | 0.00 | 0.00 | 74 | 1012.6 |
| 20260901044049 | 63 | 105 | 5.2 | 9.6 | 0.00 | 0.00 | 0.00 | 74 | 1012.5 |
| 20260901043028 | 63 | 151 | 6.1 | 9.6 | 0.00 | 0.00 | 0.00 | 73 | 1012.4 |
| 20260901042020 | 63 | 169 | 4.3 | 9.6 | 0.00 | 0.00 | 0.00 | 72 | 1012.4 |
| 20260901041022 | 64 | 186 | 4.3 | 10.4 | 0.00 | 0.00 | 0.00 | 72 | 1012.3 |
| 20260901040022 | 64 | 200 | 4.3 | 12.2 | 0.00 | 0.00 | 0.00 | 71 | 1012.3 |
| 20260901035012 | 64 | 182 | 4.3 | 8.7 | 0.00 | 0.00 | 0.00 | 71 | 1012.0 |
| 20260901034011 | 65 | 165 | 3.5 | 8.7 | 0.00 | 0.00 | 0.00 | 70 | 1011.8 |
| 20260901033016 | 65 | 218 | 3.5 | 8.7 | 0.00 | 0.00 | 0.00 | 69 | 1011.6 |
| 20260901032013 | 65 | 171 | 2.6 | 8.7 | 0.00 | 0.00 | 0.00 | 69 | 1011.5 |
| 20260901031012 | 66 | 239 | 7.0 | 10.4 | 0.00 | 0.00 | 0.00 | 68 | 1011.3 |
| 20260901030013 | 66 | 201 | 2.6 | 12.2 | 0.00 | 0.00 | 0.00 | 67 | 1011.1 |
| 20260901025011 | 67 | 159 | 4.3 | 11.3 | 0.00 | 0.00 | 0.00 | 66 | 1011.0 |
| 20260901024016 | 68 | 137 | 5.2 | 9.6 | 0.00 | 0.00 | 0.00 | 64 | 1011.1 |
| 20260901023018 | 69 | 191 | 4.3 | 10.4 | 0.00 | 0.00 | 0.00 | 63 | 1010.9 |
| 20260901022021 | 69 | 195 | 2.6 | 11.3 | 0.00 | 0.00 | 0.00 | 60 | 1010.9 |
| 20260901021038 | 70 | 216 | 4.3 | 9.6 | 0.00 | 0.00 | 0.00 | 59 | 1010.8 |
| 20260901020021 | 71 | 301 | 4.3 | 10.4 | 0.00 | 0.00 | 0.00 | 57 | 1010.7 |
| 20260901015023 | 72 | 191 | 4.3 | 13.0 | 0.00 | 0.00 | 0.00 | 55 | 1010.6 |
| 20260901014040 | 73 | 189 | 3.5 | 9.6 | 0.00 | 0.00 | 0.00 | 54 | 1010.3 |
| 20260901013017 | 74 | 166 | 3.5 | 9.6 | 0.00 | 0.00 | 0.00 | 53 | 1010.4 |
| 20260901012012 | 75 | 231 | 4.3 | 13.0 | 0.00 | 0.00 | 0.00 | 50 | 1010.4 |
| 20260901011012 | 76 | 203 | 5.2 | 10.4 | 0.00 | 0.00 | 0.00 | 49 | 1010.4 |
| 20260901010204 | 76 | 212 | 6.1 | 11.3 | 0.00 | 0.00 | 0.00 | 48 | 1010.5 |
| 20260901005026 | 76 | 197 | 5.2 | 12.2 | 0.00 | 0.00 | 0.00 | 48 | 1010.5 |
| 20260901004028 | 77 | 213 | 4.3 | 13.0 | 0.00 | 0.00 | 0.00 | 47 | 1010.7 |
| 20260901003010 | 78 | 181 | 2.6 | 10.4 | 0.00 | 0.00 | 0.00 | 47 | 1010.8 |
| 20260901002031 | 78 | 184 | 3.5 | 8.7 | 0.00 | 0.00 | 0.00 | 47 | 1010.5 |
| 20260901001028 | 78 | 210 | 3.5 | 8.7 | 0.00 | 0.00 | 0.00 | 48 | 1010.7 |
| 20260901000010 | 78 | 179 | 4.3 | 10.4 | 0.00 | 0.00 | 0.00 | 47 | 1010.8 |
| 20260831235012 | 78 | 252 | 6.1 | 10.4 | 0.00 | 0.00 | 0.00 | 47 | 1010.6 |
| 20260831234029 | 79 | 227 | 3.5 | 10.4 | 0.00 | 0.00 | 0.00 | 47 | 1010.7 |
| 20260831233030 | 78 | 298 | 4.3 | 10.4 | 0.00 | 0.00 | 0.00 | 48 | 1010.9 |
| 20260831232010 | 78 | 250 | 5.2 | 8.7 | 0.00 | 0.00 | 0.00 | 48 | 1011.0 |
| 20260831231025 | 79 | 178 | 3.5 | 9.6 | 0.00 | 0.00 | 0.00 | 48 | 1011.0 |
| 20260831230023 | 79 | 172 | 1.7 | 11.3 | 0.00 | 0.00 | 0.00 | 47 | 1011.1 |
| 20260831225024 | 78 | 245 | 3.5 | 8.7 | 0.00 | 0.00 | 0.00 | 48 | 1011.2 |
| 20260831224019 | 78 | 195 | 4.3 | 11.3 | 0.00 | 0.00 | 0.00 | 49 | 1011.3 |
| 20260831223020 | 77 | 245 | 4.3 | 9.6 | 0.00 | 0.00 | 0.00 | 48 | 1011.4 |
| 20260831222023 | 77 | 159 | 4.3 | 8.7 | 0.00 | 0.00 | 0.00 | 49 | 1011.6 |
| 20260831221020 | 77 | 231 | 5.2 | 8.7 | 0.00 | 0.00 | 0.00 | 48 | 1011.6 |
| 20260831220020 | 77 | 176 | 4.3 | 10.4 | 0.00 | 0.00 | 0.00 | 48 | 1011.9 |
| 20260831215022 | 77 | 241 | 4.3 | 10.4 | 0.00 | 0.00 | 0.00 | 48 | 1011.8 |
| 20260831214033 | 77 | 265 | 2.6 | 8.7 | 0.00 | 0.00 | 0.00 | 49 | 1011.8 |
| 20260831213015 | 76 | 260 | 4.3 | 8.7 | 0.00 | 0.00 | 0.00 | 49 | 1011.8 |
| 20260831212015 | 76 | 275 | 5.2 | 7.8 | 0.00 | 0.00 | 0.00 | 50 | 1012.0 |
| 20260831211010 | 76 | 203 | 3.5 | 8.7 | 0.00 | 0.00 | 0.00 | 51 | 1012.1 |
| 20260831210012 | 75 | 194 | 4.3 | 8.7 | 0.00 | 0.00 | 0.00 | 51 | 1012.1 |
| 20260831205011 | 75 | 255 | 4.3 | 8.7 | 0.00 | 0.00 | 0.00 | 51 | 1012.2 |
| 20260831204025 | 75 | 169 | 2.6 | 7.8 | 0.00 | 0.00 | 0.00 | 52 | 1012.3 |
| 20260831203027 | 75 | 234 | 1.7 | 7.0 | 0.00 | 0.00 | 0.00 | 52 | 1012.3 |
| 20260831202027 | 74 | 203 | 3.5 | 10.4 | 0.00 | 0.00 | 0.00 | 53 | 1012.5 |
| 20260831201026 | 74 | 260 | 6.1 | 10.4 | 0.00 | 0.00 | 0.00 | 53 | 1012.3 |
| 20260831200028 | 74 | 205 | 2.6 | 9.6 | 0.00 | 0.00 | 0.00 | 53 | 1012.6 |
| 20260831195048 | 73 | 218 | 3.5 | 8.7 | 0.00 | 0.00 | 0.00 | 54 | 1012.8 |
| 20260831194024 | 73 | 235 | 5.2 | 9.6 | 0.00 | 0.00 | 0.00 | 56 | 1012.9 |
| 20260831193022 | 73 | 192 | 6.1 | 12.2 | 0.00 | 0.00 | 0.00 | 56 | 1013.0 |
| 20260831192023 | 73 | 292 | 5.2 | 14.8 | 0.00 | 0.00 | 0.00 | 55 | 1012.9 |
| 20260831191039 | 72 | 205 | 3.5 | 8.7 | 0.00 | 0.00 | 0.00 | 58 | 1013.0 |
| 20260831190015 | 72 | 286 | 2.6 | 9.6 | 0.00 | 0.00 | 0.00 | 57 | 1012.9 |
| 20260831185017 | 72 | 270 | 3.5 | 9.6 | 0.00 | 0.00 | 0.00 | 56 | 1012.8 |
| 20260831184017 | 72 | 174 | 5.2 | 9.6 | 0.00 | 0.00 | 0.00 | 56 | 1012.8 |
| 20260831183018 | 72 | 250 | 2.6 | 9.6 | 0.00 | 0.00 | 0.00 | 57 | 1012.8 |
| 20260831182019 | 72 | 191 | 4.3 | 10.4 | 0.00 | 0.00 | 0.00 | 58 | 1013.1 |
| 20260831181016 | 71 | 168 | 5.2 | 11.3 | 0.00 | 0.00 | 0.00 | 58 | 1013.0 |
| 20260831180018 | 71 | 225 | 4.3 | 10.4 | 0.00 | 0.00 | 0.00 | 59 | 1012.9 |
| 20260831175022 | 70 | 207 | 5.2 | 11.3 | 0.00 | 0.00 | 0.00 | 60 | 1012.9 |
| 20260831174020 | 70 | 251 | 3.5 | 9.6 | 0.00 | 0.00 | 0.00 | 61 | 1012.8 |
| 20260831173016 | 70 | 181 | 4.3 | 8.7 | 0.00 | 0.00 | 0.00 | 61 | 1012.8 |
| 20260831172016 | 69 | 109 | 4.3 | 7.8 | 0.00 | 0.00 | 0.00 | 61 | 1012.7 |
| 20260831171021 | 69 | 189 | 3.5 | 8.7 | 0.00 | 0.00 | 0.00 | 62 | 1012.7 |
| 20260831170019 | 69 | 172 | 3.5 | 7.0 | 0.00 | 0.00 | 0.00 | 62 | 1012.6 |
| 20260831165041 | 68 | 211 | 1.7 | 7.0 | 0.00 | 0.00 | 0.00 | 64 | 1012.6 |
| 20260831164021 | 67 | 189 | 2.6 | 8.7 | 0.00 | 0.00 | 0.00 | 65 | 1012.7 |
| 20260831163038 | 67 | 170 | 6.1 | 8.7 | 0.00 | 0.00 | 0.00 | 65 | 1012.7 |
| 20260831162021 | 66 | 154 | 4.3 | 7.8 | 0.00 | 0.00 | 0.00 | 66 | 1012.6 |
| 20260831161017 | 66 | 132 | 2.6 | 7.0 | 0.00 | 0.00 | 0.00 | 67 | 1012.6 |
| 20260831160017 | 65 | 119 | 4.3 | 6.1 | 0.00 | 0.00 | 0.00 | 68 | 1012.8 |
| 20260831155038 | 64 | 97 | 3.5 | 7.0 | 0.00 | 0.00 | 0.00 | 70 | 1012.7 |
| 20260831154014 | 64 | 195 | 3.5 | 8.7 | 0.00 | 0.00 | 0.00 | 71 | 1012.7 |
| 20260831153018 | 63 | 187 | 3.5 | 7.0 | 0.00 | 0.00 | 0.00 | 73 | 1012.7 |
| 20260831152024 | 62 | 122 | 4.3 | 7.8 | 0.00 | 0.00 | 0.00 | 75 | 1012.6 |
| 20260831151023 | 61 | 165 | 4.3 | 8.7 | 0.00 | 0.00 | 0.00 | 78 | 1012.6 |
| 20260831145014 | 59 | 147 | 0.9 | 7.8 | 0.00 | 0.00 | 0.00 | 81 | 1012.4 |
| 20260831144035 | 59 | 135 | 2.6 | 6.1 | 0.00 | 0.00 | 0.00 | 82 | 1012.3 |
| 20260831143016 | 58 | 196 | 2.6 | 6.1 | 0.00 | 0.00 | 0.00 | 82 | 1012.2 |
| 20260831142019 | 58 | 154 | 3.5 | 7.0 | 0.00 | 0.00 | 0.00 | 83 | 1012.1 |
| 20260831141019 | 58 | 147 | 2.6 | 6.1 | 0.00 | 0.00 | 0.00 | 83 | 1012.0 |
| 20260831140039 | 58 | 178 | 1.7 | 5.2 | 0.00 | 0.00 | 0.00 | 82 | 1011.6 |
| 20260831135018 | 58 | 156 | 1.7 | 8.7 | 0.00 | 0.00 | 0.00 | 82 | 1011.7 |
| 20260831134014 | 58 | 166 | 4.3 | 7.0 | 0.00 | 0.00 | 0.00 | 82 | 1011.5 |
| 20260831133016 | 58 | 151 | 3.5 | 8.7 | 0.00 | 0.00 | 0.00 | 81 | 1011.4 |
| 20260831132020 | 58 | 193 | 1.7 | 6.1 | 0.00 | 0.00 | 0.00 | 81 | 1011.3 |
| 20260831131017 | 58 | 172 | 2.6 | 6.1 | 0.00 | 0.00 | 0.00 | 81 | 1011.3 |
| 20260831130011 | 59 | 197 | 2.6 | 6.1 | 0.00 | 0.00 | 0.00 | 80 | 1011.0 |
| 20260831125018 | 59 | 158 | 2.6 | 5.2 | 0.00 | 0.00 | 0.00 | 79 | 1010.9 |